| time (UTC) | temp F | wind direction | speed MPH | gust MPH | rain 1hr in | rain 24hr in | rain mn in | humidity % | barometer mb |
| 20260506012113 | 70 | 136 | 2.0 | 7.0 | 0.00 | 0.00 | 0.00 | 69 | 1023.8 |
| 20260506011615 | 70 | 85 | 3.0 | 7.0 | 0.00 | 0.00 | 0.00 | 70 | 1023.7 |
| 20260506011113 | 69 | 70 | 3.0 | 8.0 | 0.00 | 0.00 | 0.00 | 70 | 1023.7 |
| 20260506010613 | 69 | 84 | 3.0 | 8.0 | 0.00 | 0.00 | 0.00 | 70 | 1023.7 |
| 20260506010108 | 70 | 72 | 2.0 | 6.0 | 0.00 | 0.00 | 0.00 | 68 | 1023.7 |
| 20260506005608 | 70 | 76 | 2.0 | 5.0 | 0.00 | 0.00 | 0.00 | 68 | 1023.7 |
| 20260506005107 | 70 | 46 | 2.0 | 7.0 | 0.00 | 0.00 | 0.00 | 69 | 1023.8 |
| 20260506004607 | 70 | 81 | 3.0 | 8.0 | 0.00 | 0.00 | 0.00 | 69 | 1023.8 |
| 20260506004107 | 70 | 82 | 3.0 | 8.0 | 0.00 | 0.00 | 0.00 | 69 | 1023.8 |
| 20260506003607 | 70 | 24 | 2.0 | 8.0 | 0.00 | 0.00 | 0.00 | 67 | 1023.7 |
| 20260506003103 | 70 | 48 | 2.0 | 4.0 | 0.00 | 0.00 | 0.00 | 68 | 1023.9 |
| 20260506002603 | 70 | 23 | 2.0 | 6.0 | 0.00 | 0.00 | 0.00 | 67 | 1023.7 |
| 20260506002102 | 70 | 50 | 2.0 | 8.0 | 0.00 | 0.00 | 0.00 | 69 | 1023.8 |
| 20260506001602 | 70 | 95 | 3.0 | 9.0 | 0.00 | 0.00 | 0.00 | 70 | 1023.8 |
| 20260506001101 | 69 | 49 | 2.0 | 9.0 | 0.00 | 0.00 | 0.00 | 70 | 1023.8 |
| 20260506000600 | 69 | 76 | 2.0 | 4.0 | 0.00 | 0.00 | 0.00 | 71 | 1023.8 |
| 20260506000059 | 68 | 342 | 1.0 | 3.0 | 0.00 | 0.00 | 0.00 | 70 | 1023.8 |
| 20260505235602 | 67 | 84 | 0.0 | 4.0 | 0.00 | 0.00 | 0.00 | 72 | 1023.9 |
| 20260505235058 | 67 | 33 | 1.0 | 4.0 | 0.00 | 0.00 | 0.00 | 72 | 1024.0 |
| 20260505234557 | 67 | 5 | 2.0 | 4.0 | 0.00 | 0.00 | 0.00 | 71 | 1024.0 |
| 20260505234055 | 68 | 22 | 2.0 | 6.0 | 0.00 | 0.00 | 0.00 | 71 | 1024.0 |
| 20260505233556 | 68 | 296 | 2.0 | 6.0 | 0.00 | 0.00 | 0.00 | 70 | 1024.1 |
| 20260505233053 | 68 | 71 | 2.0 | 8.0 | 0.00 | 0.00 | 0.00 | 72 | 1024.2 |
| 20260505232553 | 68 | 65 | 2.0 | 8.0 | 0.00 | 0.00 | 0.00 | 71 | 1024.1 |
| 20260505232054 | 68 | 101 | 2.0 | 8.0 | 0.00 | 0.00 | 0.00 | 72 | 1024.2 |
| 20260505231551 | 68 | 90 | 1.0 | 8.0 | 0.00 | 0.00 | 0.00 | 71 | 1024.2 |
| 20260505231049 | 68 | 134 | 2.0 | 8.0 | 0.00 | 0.00 | 0.00 | 71 | 1024.3 |
| 20260505230549 | 68 | 78 | 2.0 | 8.0 | 0.00 | 0.00 | 0.00 | 72 | 1024.4 |
| 20260505230044 | 68 | 49 | 2.0 | 6.0 | 0.00 | 0.00 | 0.00 | 75 | 1024.4 |
| 20260505225543 | 67 | 355 | 2.0 | 8.0 | 0.00 | 0.00 | 0.00 | 75 | 1024.3 |
| 20260505225043 | 66 | 67 | 2.0 | 8.0 | 0.00 | 0.00 | 0.00 | 77 | 1024.5 |
| 20260505224543 | 65 | 59 | 2.0 | 7.0 | 0.00 | 0.00 | 0.00 | 76 | 1024.5 |
| 20260505224043 | 65 | 90 | 2.0 | 7.0 | 0.00 | 0.00 | 0.00 | 76 | 1024.6 |
| 20260505223544 | 65 | 342 | 1.0 | 6.0 | 0.00 | 0.00 | 0.00 | 75 | 1024.6 |
| 20260505223039 | 65 | 24 | 3.0 | 9.0 | 0.00 | 0.00 | 0.00 | 76 | 1024.6 |
| 20260505222541 | 65 | 298 | 3.0 | 9.0 | 0.00 | 0.00 | 0.00 | 76 | 1024.7 |
| 20260505222037 | 65 | 121 | 1.0 | 4.0 | 0.00 | 0.00 | 0.00 | 78 | 1024.6 |
| 20260505221538 | 64 | 46 | 0.0 | 4.0 | 0.00 | 0.00 | 0.00 | 77 | 1024.7 |
| 20260505221037 | 64 | 166 | 0.0 | 3.0 | 0.00 | 0.00 | 0.00 | 78 | 1024.8 |
| 20260505220539 | 64 | 266 | 1.0 | 4.0 | 0.00 | 0.00 | 0.00 | 77 | 1024.8 |
| 20260505220031 | 64 | 269 | 2.0 | 4.0 | 0.00 | 0.00 | 0.00 | 78 | 1024.8 |
| 20260505215530 | 64 | 230 | 2.0 | 4.0 | 0.00 | 0.00 | 0.00 | 77 | 1024.8 |
| 20260505215031 | 64 | 302 | 1.0 | 4.0 | 0.00 | 0.00 | 0.00 | 77 | 1024.8 |
| 20260505214532 | 64 | 306 | 1.0 | 4.0 | 0.00 | 0.00 | 0.00 | 76 | 1024.8 |
| 20260505214031 | 64 | 254 | 2.0 | 10.0 | 0.00 | 0.00 | 0.00 | 76 | 1024.8 |
| 20260505213532 | 64 | 321 | 1.0 | 10.0 | 0.00 | 0.00 | 0.00 | 77 | 1024.9 |
| 20260505213029 | 64 | 77 | 1.0 | 4.0 | 0.00 | 0.00 | 0.00 | 77 | 1024.9 |
| 20260505212526 | 63 | 19 | 1.0 | 4.0 | 0.00 | 0.00 | 0.00 | 77 | 1024.9 |
| 20260505212028 | 63 | 326 | 1.0 | 4.0 | 0.00 | 0.00 | 0.00 | 77 | 1024.9 |
| 20260505211527 | 63 | 296 | 1.0 | 4.0 | 0.00 | 0.00 | 0.00 | 77 | 1024.8 |
| 20260505211025 | 63 | 300 | 1.0 | 4.0 | 0.00 | 0.00 | 0.00 | 77 | 1024.9 |
| 20260505210526 | 63 | 279 | 2.0 | 5.0 | 0.00 | 0.00 | 0.00 | 77 | 1024.9 |
| 20260505210020 | 63 | 264 | 1.0 | 5.0 | 0.00 | 0.00 | 0.00 | 77 | 1025.0 |
| 20260505205521 | 63 | 325 | 1.0 | 5.0 | 0.00 | 0.00 | 0.00 | 78 | 1025.0 |
| 20260505205021 | 63 | 294 | 1.0 | 3.0 | 0.00 | 0.00 | 0.00 | 77 | 1024.9 |
| 20260505204522 | 63 | 267 | 2.0 | 3.0 | 0.00 | 0.00 | 0.00 | 77 | 1025.0 |
| 20260505204019 | 63 | 271 | 2.0 | 4.0 | 0.00 | 0.00 | 0.00 | 77 | 1025.1 |
| 20260505203520 | 62 | 298 | 1.0 | 4.0 | 0.00 | 0.00 | 0.00 | 78 | 1025.1 |
| 20260505203016 | 62 | 337 | 0.0 | 5.0 | 0.00 | 0.00 | 0.00 | 78 | 1025.0 |
| 20260505202515 | 62 | 254 | 0.0 | 5.0 | 0.00 | 0.00 | 0.00 | 78 | 1025.0 |
| 20260505202012 | 62 | 253 | 1.0 | 6.0 | 0.00 | 0.00 | 0.00 | 78 | 1025.0 |
| 20260505201513 | 62 | 254 | 1.0 | 6.0 | 0.00 | 0.00 | 0.00 | 78 | 1025.2 |
| 20260505201013 | 62 | 308 | 1.0 | 5.0 | 0.00 | 0.00 | 0.00 | 78 | 1025.1 |
| 20260505200514 | 62 | 0 | 1.0 | 6.0 | 0.00 | 0.00 | 0.00 | 79 | 1025.1 |
| 20260505200007 | 62 | 265 | 0.0 | 4.0 | 0.00 | 0.00 | 0.00 | 78 | 1025.0 |
| 20260505195511 | 62 | 244 | 1.0 | 3.0 | 0.00 | 0.00 | 0.00 | 79 | 1025.0 |
| 20260505195003 | 61 | 252 | 1.0 | 3.0 | 0.00 | 0.00 | 0.00 | 79 | 1025.1 |
| 20260505194501 | 61 | 257 | 1.0 | 4.0 | 0.00 | 0.00 | 0.00 | 80 | 1025.1 |
| 20260505194001 | 61 | 265 | 1.0 | 4.0 | 0.00 | 0.00 | 0.00 | 79 | 1025.2 |
| 20260505193456 | 61 | 257 | 1.0 | 3.0 | 0.00 | 0.00 | 0.00 | 80 | 1025.2 |
| 20260505192956 | 61 | 257 | 2.0 | 4.0 | 0.00 | 0.00 | 0.00 | 79 | 1025.3 |
| 20260505192454 | 61 | 257 | 2.0 | 4.0 | 0.00 | 0.00 | 0.00 | 80 | 1025.2 |
| 20260505191955 | 61 | 270 | 2.0 | 4.0 | 0.00 | 0.00 | 0.00 | 80 | 1025.3 |
| 20260505191455 | 61 | 261 | 1.0 | 4.0 | 0.00 | 0.00 | 0.00 | 80 | 1025.2 |
| 20260505190955 | 61 | 234 | 1.0 | 4.0 | 0.00 | 0.00 | 0.00 | 79 | 1025.1 |
| 20260505190448 | 61 | 230 | 2.0 | 5.0 | 0.00 | 0.00 | 0.00 | 79 | 1025.1 |
| 20260505185949 | 61 | 218 | 2.0 | 6.0 | 0.00 | 0.00 | 0.00 | 80 | 1025.2 |
| 20260505185447 | 61 | 112 | 1.0 | 6.0 | 0.00 | 0.00 | 0.00 | 80 | 1025.2 |
| 20260505184948 | 61 | 258 | 1.0 | 3.0 | 0.00 | 0.00 | 0.00 | 80 | 1025.1 |
| 20260505184447 | 60 | 257 | 1.0 | 4.0 | 0.00 | 0.00 | 0.00 | 80 | 1025.1 |
| 20260505183948 | 60 | 263 | 2.0 | 4.0 | 0.00 | 0.00 | 0.00 | 81 | 1025.2 |
| 20260505183446 | 60 | 259 | 2.0 | 4.0 | 0.00 | 0.00 | 0.00 | 81 | 1025.1 |
| 20260505182945 | 60 | 273 | 2.0 | 4.0 | 0.00 | 0.00 | 0.00 | 81 | 1025.2 |
| 20260505182445 | 60 | 277 | 1.0 | 4.0 | 0.00 | 0.00 | 0.00 | 81 | 1025.2 |
| 20260505181945 | 60 | 287 | 2.0 | 6.0 | 0.00 | 0.00 | 0.00 | 81 | 1025.3 |
| 20260505181445 | 60 | 254 | 2.0 | 6.0 | 0.00 | 0.00 | 0.00 | 81 | 1025.2 |
| 20260505180940 | 60 | 279 | 1.0 | 3.0 | 0.00 | 0.00 | 0.00 | 81 | 1025.1 |
| 20260505180437 | 59 | 282 | 2.0 | 4.0 | 0.00 | 0.00 | 0.00 | 81 | 1025.1 |
| 20260505175938 | 60 | 282 | 2.0 | 4.0 | 0.00 | 0.00 | 0.00 | 81 | 1025.1 |
| 20260505175437 | 60 | 10 | 1.0 | 3.0 | 0.00 | 0.00 | 0.00 | 81 | 1025.1 |
| 20260505174937 | 60 | 42 | 1.0 | 3.0 | 0.00 | 0.00 | 0.00 | 80 | 1025.1 |
| 20260505174436 | 60 | 0 | 1.0 | 3.0 | 0.00 | 0.00 | 0.00 | 81 | 1025.0 |
| 20260505173938 | 60 | 315 | 1.0 | 3.0 | 0.00 | 0.00 | 0.00 | 81 | 1025.0 |
| 20260505173432 | 59 | 127 | 1.0 | 3.0 | 0.00 | 0.00 | 0.00 | 81 | 1025.0 |
| 20260505172934 | 59 | 126 | 1.0 | 3.0 | 0.00 | 0.00 | 0.00 | 82 | 1025.0 |
| 20260505172432 | 59 | 119 | 0.0 | 2.0 | 0.00 | 0.00 | 0.00 | 82 | 1025.0 |
| 20260505171932 | 59 | 232 | 1.0 | 4.0 | 0.00 | 0.00 | 0.00 | 82 | 1024.9 |
| 20260505171433 | 59 | 232 | 1.0 | 5.0 | 0.00 | 0.00 | 0.00 | 82 | 1025.0 |
| 20260505170933 | 59 | 161 | 1.0 | 5.0 | 0.00 | 0.00 | 0.00 | 83 | 1025.0 |
| 20260505170429 | 59 | 288 | 1.0 | 4.0 | 0.00 | 0.00 | 0.00 | 82 | 1024.9 |
| 20260505165928 | 58 | 131 | 1.0 | 4.0 | 0.00 | 0.00 | 0.00 | 83 | 1025.0 |
| 20260505165430 | 58 | 74 | 1.0 | 3.0 | 0.00 | 0.00 | 0.00 | 83 | 1024.9 |
| 20260505164929 | 58 | 211 | 1.0 | 3.0 | 0.00 | 0.00 | 0.00 | 84 | 1024.9 |
| 20260505164428 | 58 | 264 | 0.0 | 2.0 | 0.00 | 0.00 | 0.00 | 84 | 1024.9 |
| 20260505163929 | 58 | 264 | 0.0 | 2.0 | 0.00 | 0.00 | 0.00 | 84 | 1024.8 |
| 20260505163425 | 57 | 265 | 0.0 | 2.0 | 0.00 | 0.00 | 0.00 | 85 | 1024.9 |
| 20260505162925 | 57 | 265 | 0.0 | 2.0 | 0.00 | 0.00 | 0.00 | 85 | 1024.8 |
| 20260505162425 | 57 | 265 | 1.0 | 4.0 | 0.00 | 0.00 | 0.00 | 86 | 1024.8 |
| 20260505161924 | 56 | 265 | 1.0 | 4.0 | 0.00 | 0.00 | 0.00 | 86 | 1024.9 |
| 20260505161424 | 56 | 267 | 1.0 | 3.0 | 0.00 | 0.00 | 0.00 | 86 | 1024.8 |
| 20260505160924 | 56 | 279 | 1.0 | 4.0 | 0.00 | 0.00 | 0.00 | 86 | 1024.9 |
| 20260505160425 | 56 | 279 | 1.0 | 4.0 | 0.00 | 0.00 | 0.00 | 86 | 1024.9 |
| 20260505152919 | 55 | 277 | 1.0 | 3.0 | 0.00 | 0.00 | 0.00 | 88 | 1024.8 |
| 20260505152418 | 55 | 277 | 1.0 | 4.0 | 0.00 | 0.00 | 0.00 | 87 | 1024.7 |
| 20260505151920 | 55 | 279 | 1.0 | 4.0 | 0.00 | 0.00 | 0.00 | 88 | 1024.8 |
| 20260505151414 | 55 | 309 | 1.0 | 3.0 | 0.00 | 0.00 | 0.00 | 88 | 1024.8 |
| 20260505150912 | 55 | 237 | 0.0 | 2.0 | 0.00 | 0.00 | 0.00 | 88 | 1024.7 |
| 20260505150412 | 55 | 219 | 1.0 | 2.0 | 0.00 | 0.00 | 0.00 | 88 | 1024.7 |
| 20260505140356 | 54 | 223 | 0.0 | 2.0 | 0.00 | 0.00 | 0.00 | 89 | 1024.2 |
| 20260505124840 | 54 | 269 | 1.0 | 4.0 | 0.00 | 0.00 | 0.00 | 89 | 1023.8 |
| 20260505124340 | 54 | 222 | 2.0 | 4.0 | 0.00 | 0.00 | 0.00 | 89 | 1023.8 |
| 20260505123841 | 54 | 269 | 1.0 | 4.0 | 0.00 | 0.00 | 0.00 | 89 | 1023.8 |
| 20260505123338 | 54 | 234 | 1.0 | 4.0 | 0.00 | 0.00 | 0.00 | 89 | 1023.8 |
| 20260505122836 | 54 | 231 | 1.0 | 3.0 | 0.00 | 0.00 | 0.00 | 89 | 1023.9 |
| 20260505122336 | 54 | 238 | 1.0 | 3.0 | 0.00 | 0.00 | 0.00 | 89 | 1023.8 |
| 20260505121832 | 54 | 235 | 1.0 | 4.0 | 0.00 | 0.00 | 0.00 | 89 | 1023.9 |
| 20260505121332 | 54 | 227 | 2.0 | 4.0 | 0.00 | 0.00 | 0.00 | 89 | 1023.8 |
| 20260505120833 | 54 | 229 | 2.0 | 4.0 | 0.00 | 0.00 | 0.00 | 89 | 1023.8 |
| 20260505120332 | 54 | 211 | 2.0 | 4.0 | 0.00 | 0.00 | 0.00 | 89 | 1023.6 |
| 20260505115829 | 54 | 265 | 2.0 | 4.0 | 0.00 | 0.00 | 0.00 | 89 | 1023.7 |
| 20260505115330 | 54 | 259 | 1.0 | 3.0 | 0.00 | 0.00 | 0.00 | 88 | 1023.7 |
| 20260505114824 | 54 | 269 | 1.0 | 4.0 | 0.00 | 0.00 | 0.00 | 88 | 1023.7 |
| 20260505114324 | 54 | 213 | 2.0 | 4.0 | 0.00 | 0.00 | 0.00 | 88 | 1023.7 |
| 20260505113824 | 54 | 219 | 2.0 | 4.0 | 0.00 | 0.00 | 0.00 | 88 | 1023.6 |
| 20260505113325 | 54 | 243 | 1.0 | 5.0 | 0.00 | 0.00 | 0.00 | 88 | 1023.7 |
| 20260505112824 | 54 | 161 | 1.0 | 5.0 | 0.00 | 0.00 | 0.00 | 88 | 1023.6 |
| 20260505112324 | 54 | 223 | 1.0 | 5.0 | 0.00 | 0.00 | 0.00 | 88 | 1023.6 |
| 20260505111823 | 54 | 238 | 1.0 | 4.0 | 0.00 | 0.00 | 0.00 | 88 | 1023.6 |
| 20260505111321 | 54 | 207 | 1.0 | 4.0 | 0.00 | 0.00 | 0.00 | 88 | 1023.5 |
| 20260505110818 | 54 | 184 | 1.0 | 4.0 | 0.00 | 0.00 | 0.00 | 88 | 1023.4 |
| 20260505110318 | 54 | 206 | 0.0 | 3.0 | 0.00 | 0.00 | 0.00 | 88 | 1023.5 |
| 20260505101807 | 54 | 176 | 1.0 | 4.0 | 0.00 | 0.00 | 0.00 | 89 | 1023.2 |
| 20260505101308 | 54 | 142 | 1.0 | 4.0 | 0.00 | 0.00 | 0.00 | 89 | 1023.2 |
| 20260505100807 | 54 | 146 | 1.0 | 4.0 | 0.00 | 0.00 | 0.00 | 89 | 1023.1 |
| 20260505100308 | 54 | 145 | 0.0 | 3.0 | 0.00 | 0.00 | 0.00 | 89 | 1023.3 |
| 20260505095805 | 54 | 145 | 0.0 | 2.0 | 0.00 | 0.00 | 0.00 | 89 | 1023.1 |
| 20260505095307 | 54 | 145 | 0.0 | 2.0 | 0.00 | 0.00 | 0.00 | 89 | 1023.2 |
| 20260505094800 | 54 | 150 | 0.0 | 1.0 | 0.00 | 0.00 | 0.00 | 89 | 1023.1 |
| 20260505094300 | 54 | 147 | 0.0 | 1.0 | 0.00 | 0.00 | 0.00 | 89 | 1023.0 |
| 20260505093800 | 54 | 147 | 0.0 | 2.0 | 0.00 | 0.00 | 0.00 | 89 | 1023.0 |
| 20260505093300 | 54 | 146 | 0.0 | 2.0 | 0.00 | 0.00 | 0.00 | 89 | 1022.9 |
| 20260505092759 | 54 | 146 | 0.0 | 1.0 | 0.00 | 0.00 | 0.00 | 89 | 1022.9 |
| 20260505092301 | 54 | 148 | 0.0 | 2.0 | 0.00 | 0.00 | 0.00 | 89 | 1022.9 |
| 20260505091758 | 54 | 147 | 0.0 | 2.0 | 0.00 | 0.00 | 0.00 | 89 | 1022.9 |
| 20260505091255 | 54 | 147 | 1.0 | 3.0 | 0.00 | 0.00 | 0.00 | 89 | 1022.9 |
| 20260505090756 | 53 | 147 | 1.0 | 3.0 | 0.00 | 0.00 | 0.00 | 89 | 1022.9 |
| 20260505090256 | 53 | 142 | 0.0 | 3.0 | 0.00 | 0.00 | 0.00 | 89 | 1022.9 |
| 20260505085754 | 53 | 187 | 0.0 | 2.0 | 0.00 | 0.00 | 0.00 | 89 | 1022.9 |
| 20260505085254 | 53 | 186 | 0.0 | 2.0 | 0.00 | 0.00 | 0.00 | 89 | 1022.9 |
| 20260505084748 | 53 | 186 | 0.0 | 3.0 | 0.00 | 0.00 | 0.00 | 90 | 1022.9 |
| 20260505084245 | 53 | 205 | 0.0 | 3.0 | 0.00 | 0.00 | 0.00 | 89 | 1022.9 |
| 20260505083745 | 53 | 204 | 0.0 | 2.0 | 0.00 | 0.00 | 0.00 | 89 | 1023.0 |
| 20260505083247 | 53 | 205 | 0.0 | 3.0 | 0.00 | 0.00 | 0.00 | 89 | 1022.9 |
| 20260505082746 | 53 | 205 | 1.0 | 3.0 | 0.00 | 0.00 | 0.00 | 90 | 1022.9 |
| 20260505082245 | 53 | 178 | 1.0 | 4.0 | 0.00 | 0.00 | 0.00 | 90 | 1022.8 |
| 20260505081745 | 53 | 179 | 1.0 | 4.0 | 0.00 | 0.00 | 0.00 | 90 | 1022.9 |
| 20260505081244 | 52 | 166 | 0.0 | 4.0 | 0.00 | 0.00 | 0.00 | 90 | 1022.9 |
| 20260505080743 | 52 | 167 | 0.0 | 3.0 | 0.00 | 0.00 | 0.00 | 90 | 1022.9 |
| 20260505080240 | 52 | 167 | 0.0 | 2.0 | 0.00 | 0.00 | 0.00 | 89 | 1022.9 |
| 20260505075741 | 52 | 169 | 1.0 | 2.0 | 0.00 | 0.00 | 0.00 | 89 | 1022.8 |
| 20260505075240 | 52 | 169 | 1.0 | 4.0 | 0.00 | 0.00 | 0.00 | 89 | 1022.8 |
| 20260505074739 | 52 | 170 | 1.0 | 4.0 | 0.00 | 0.00 | 0.00 | 89 | 1022.7 |
| 20260505074240 | 52 | 186 | 1.0 | 4.0 | 0.00 | 0.00 | 0.00 | 89 | 1022.7 |
| 20260505073740 | 52 | 165 | 1.0 | 4.0 | 0.00 | 0.00 | 0.00 | 89 | 1022.6 |
| 20260505073236 | 53 | 214 | 0.0 | 3.0 | 0.00 | 0.00 | 0.00 | 89 | 1022.6 |
| 20260505072736 | 53 | 158 | 0.0 | 2.0 | 0.00 | 0.00 | 0.00 | 89 | 1022.7 |
| 20260505072235 | 53 | 158 | 0.0 | 2.0 | 0.00 | 0.00 | 0.00 | 89 | 1022.7 |
| 20260505071736 | 53 | 171 | 0.0 | 4.0 | 0.00 | 0.00 | 0.00 | 88 | 1022.7 |
| 20260505071235 | 53 | 171 | 1.0 | 4.0 | 0.00 | 0.00 | 0.00 | 88 | 1022.6 |
| 20260505070737 | 53 | 238 | 0.0 | 3.0 | 0.00 | 0.00 | 0.00 | 88 | 1022.4 |
| 20260505070232 | 53 | 211 | 0.0 | 2.0 | 0.00 | 0.00 | 0.00 | 88 | 1022.3 |
| 20260505065733 | 54 | 211 | 0.0 | 2.0 | 0.00 | 0.00 | 0.00 | 88 | 1022.3 |
| 20260505065228 | 54 | 211 | 0.0 | 3.0 | 0.00 | 0.00 | 0.00 | 88 | 1022.3 |
| 20260505064727 | 54 | 211 | 1.0 | 3.0 | 0.00 | 0.00 | 0.00 | 88 | 1022.4 |
| 20260505064226 | 54 | 231 | 2.0 | 4.0 | 0.00 | 0.00 | 0.00 | 88 | 1022.3 |
| 20260505063725 | 54 | 219 | 2.0 | 4.0 | 0.00 | 0.00 | 0.00 | 88 | 1022.2 |
| 20260505063226 | 54 | 232 | 2.0 | 6.0 | 0.00 | 0.00 | 0.00 | 87 | 1022.3 |
| 20260505062727 | 54 | 221 | 2.0 | 6.0 | 0.00 | 0.00 | 0.00 | 87 | 1022.2 |
| 20260505062223 | 54 | 232 | 1.0 | 5.0 | 0.00 | 0.00 | 0.00 | 87 | 1022.2 |
| 20260505061721 | 54 | 220 | 1.0 | 6.0 | 0.00 | 0.00 | 0.00 | 87 | 1022.3 |
| 20260505061223 | 55 | 208 | 1.0 | 6.0 | 0.00 | 0.00 | 0.00 | 87 | 1022.2 |
| 20260505060723 | 55 | 287 | 1.0 | 3.0 | 0.00 | 0.00 | 0.00 | 87 | 1022.3 |
| 20260505060219 | 55 | 225 | 1.0 | 6.0 | 0.00 | 0.00 | 0.00 | 87 | 1022.3 |
| 20260505055720 | 55 | 211 | 2.0 | 6.0 | 0.00 | 0.00 | 0.00 | 87 | 1022.2 |
| 20260505055221 | 55 | 209 | 1.0 | 8.0 | 0.00 | 0.00 | 0.00 | 86 | 1022.1 |
| 20260505054715 | 55 | 198 | 2.0 | 8.0 | 0.00 | 0.00 | 0.00 | 86 | 1022.2 |
| 20260505054214 | 55 | 199 | 2.0 | 5.0 | 0.00 | 0.00 | 0.00 | 86 | 1022.1 |
| 20260505053714 | 56 | 11 | 1.0 | 5.0 | 0.00 | 0.00 | 0.00 | 86 | 1022.1 |
| 20260505053215 | 56 | 198 | 2.0 | 4.0 | 0.00 | 0.00 | 0.00 | 86 | 1022.1 |
| 20260505052713 | 56 | 219 | 2.0 | 7.0 | 0.00 | 0.00 | 0.00 | 86 | 1022.1 |
| 20260505052214 | 56 | 232 | 2.0 | 7.0 | 0.00 | 0.00 | 0.00 | 86 | 1022.1 |
| 20260505051714 | 56 | 215 | 2.0 | 6.0 | 0.00 | 0.00 | 0.00 | 85 | 1022.1 |
| 20260505051210 | 57 | 237 | 2.0 | 5.0 | 0.00 | 0.00 | 0.00 | 85 | 1022.1 |
| 20260505050710 | 57 | 227 | 2.0 | 6.0 | 0.00 | 0.00 | 0.00 | 85 | 1022.0 |
| 20260505050211 | 57 | 192 | 2.0 | 6.0 | 0.00 | 0.00 | 0.00 | 85 | 1021.9 |
| 20260505041707 | 60 | 163 | 1.0 | 4.0 | 0.00 | 0.00 | 0.00 | 82 | 1021.3 |
| 20260505041201 | 60 | 184 | 1.0 | 3.0 | 0.00 | 0.00 | 0.00 | 81 | 1021.2 |
| 20260505040702 | 60 | 194 | 1.0 | 3.0 | 0.00 | 0.00 | 0.00 | 81 | 1021.1 |
| 20260505040202 | 61 | 220 | 1.0 | 3.0 | 0.00 | 0.00 | 0.00 | 80 | 1020.9 |
| 20260505035701 | 61 | 222 | 1.0 | 4.0 | 0.00 | 0.00 | 0.00 | 79 | 1020.8 |
| 20260505035202 | 61 | 215 | 1.0 | 4.0 | 0.00 | 0.00 | 0.00 | 79 | 1020.7 |
| 20260505034703 | 62 | 197 | 1.0 | 3.0 | 0.00 | 0.00 | 0.00 | 78 | 1020.7 |
| 20260505034157 | 62 | 221 | 1.0 | 3.0 | 0.00 | 0.00 | 0.00 | 77 | 1020.7 |
| 20260505033659 | 62 | 217 | 1.0 | 3.0 | 0.00 | 0.00 | 0.00 | 77 | 1020.6 |
| 20260505033158 | 63 | 229 | 1.0 | 4.0 | 0.00 | 0.00 | 0.00 | 76 | 1020.5 |
| 20260505032659 | 63 | 205 | 2.0 | 5.0 | 0.00 | 0.00 | 0.00 | 76 | 1020.3 |
| 20260505032155 | 64 | 225 | 2.0 | 6.0 | 0.00 | 0.00 | 0.00 | 75 | 1020.3 |
| 20260505031653 | 64 | 239 | 2.0 | 8.0 | 0.00 | 0.00 | 0.00 | 75 | 1020.3 |
| 20260505031154 | 64 | 257 | 3.0 | 8.0 | 0.00 | 0.00 | 0.00 | 74 | 1020.2 |
| 20260505030652 | 65 | 261 | 2.0 | 7.0 | 0.00 | 0.00 | 0.00 | 73 | 1020.3 |
| 20260505030157 | 65 | 236 | 2.0 | 7.0 | 0.00 | 0.00 | 0.00 | 73 | 1020.1 |
| 20260505025652 | 66 | 261 | 2.0 | 7.0 | 0.00 | 0.00 | 0.00 | 72 | 1020.0 |
| 20260505025149 | 67 | 238 | 3.0 | 7.0 | 0.00 | 0.00 | 0.00 | 72 | 1019.9 |
| 20260505024647 | 67 | 213 | 4.0 | 9.0 | 0.00 | 0.00 | 0.00 | 72 | 1019.8 |
| 20260505024148 | 67 | 189 | 3.0 | 9.0 | 0.00 | 0.00 | 0.00 | 72 | 1019.7 |
| 20260505023643 | 68 | 188 | 3.0 | 8.0 | 0.00 | 0.00 | 0.00 | 73 | 1019.7 |
| 20260505023141 | 68 | 188 | 3.0 | 10.0 | 0.00 | 0.00 | 0.00 | 73 | 1019.7 |
| 20260505022641 | 68 | 193 | 3.0 | 10.0 | 0.00 | 0.00 | 0.00 | 72 | 1019.6 |
| 20260505022142 | 69 | 223 | 4.0 | 13.0 | 0.00 | 0.00 | 0.00 | 71 | 1019.6 |
| 20260505021641 | 69 | 273 | 4.0 | 13.0 | 0.00 | 0.00 | 0.00 | 71 | 1019.6 |
| 20260505021142 | 70 | 236 | 3.0 | 8.0 | 0.00 | 0.00 | 0.00 | 70 | 1019.6 |
| 20260505020637 | 70 | 208 | 4.0 | 8.0 | 0.00 | 0.00 | 0.00 | 69 | 1019.6 |
| 20260505020137 | 70 | 238 | 5.0 | 10.0 | 0.00 | 0.00 | 0.00 | 69 | 1019.6 |
| 20260505015635 | 71 | 243 | 6.0 | 11.0 | 0.00 | 0.00 | 0.00 | 69 | 1019.5 |
| 20260505015135 | 71 | 275 | 5.0 | 11.0 | 0.00 | 0.00 | 0.00 | 67 | 1019.5 |
| 20260505014635 | 73 | 220 | 4.0 | 11.0 | 0.00 | 0.00 | 0.00 | 67 | 1019.5 |
| 20260505014136 | 73 | 279 | 4.0 | 10.0 | 0.00 | 0.00 | 0.00 | 67 | 1019.5 |
| 20260505013629 | 73 | 254 | 3.0 | 9.0 | 0.00 | 0.00 | 0.00 | 67 | 1019.4 |
| 20260505013129 | 73 | 237 | 4.0 | 8.0 | 0.00 | 0.00 | 0.00 | 67 | 1019.4 |
| 20260505012629 | 73 | 251 | 4.0 | 8.0 | 0.00 | 0.00 | 0.00 | 67 | 1019.4 |